STARLINK-36706

Last updated on Thu Mar 05 2026 00:02:08 GMT+0000 (Coordinated Universal Time)

1 67657U 26022K 26063.06165870 .00243315 00000+0 15782-2 0 9995 2 67657 97.2838 96.7701 0001620 106.6295 253.5149 15.75306394 4666
UTC large
Height (km)
Speed (km/s)
/
Latitude / Longitude
Inclination (degrees)
Orbital Period (minutes)
Azimuth
Elevation
Range (km)
Doppler Factor

Next 0 passes for location: London (51.5072 / 0.1276)

Sorry there are no passes over London.